Showing default

ASTROCAST-0402, 55109

Orbit data source: Space-Track

ASTROCAST-0402, 55109 is a payload satellite owned by Astrocast (CH) in SSO that was launched on Tue, 03 Jan 2023 UTC via an FALCON 9 launch vehicle from the Air Force Eastern Test Range (AFETR). Payload-class satellites include a variety of spacecraft equipped with specific instruments for various scientific and technological missions. These include communications satellites like Starlink; space stations such as the ISS; scientific satellites like the Hubble; Earth observation satellites from companies like Planet Labs, Umbra, and HawkEye 360; GPS; miniature CubeSats for education and research; and military/defense satellites.

Loading next visibility...
Identifier
55109, 2023-001DE
Orbit
SSO
Country
Flag of CHCH / SWTZ
Related business
Manufacturer
Astrocast
Mission
Operational Commercial Communications
Bus & Motor
CUBESAT 3U, Unknown motor
Mass
4.5 kg wet, 4.5 kg dry
Launch date (UTC)
2023-01-03 (4 years ago)
Launch vehicle
FALCON 9
Launch site
Air Force Eastern Test Range (AFETR)
Object type
Payload
Rocket body
Debris
Shape & HBR
Box, 0.2 m
Radar Cross Section
0.035 m², Medium (>0.1 m² and < 1m²)

Expand to show TLE details & history
Last TLE update: 12 hours ago

TLE from 12 hours ago
0 ASTROCAST-0402
1 55109U 23001DE  26255.71058268  .00009315  00000-0  31765-3 0  9996
2 55109  97.5578 350.3311 0003077 289.4750  70.6158 15.30580606157915
Epoch: 2026-09-12T17:03Z
TLE epoch observation values (Epoch: 2026-09-12T17:03:14.343Z)
Latitude
-0.00001°
Longitude
102.80566°
Altitude
476.48 km
Speed
7.628 km/s
True Right ascension
23h 21m 19s
True Declination
0° 00' 00"
Sunlit
Object was in full shadow at epoch
Visualization orbit readout
Latitude
Unknown
Longitude
Unknown
Altitude
Unknown
Speed
Unknown
Apparent Right ascension
Unknown
Apparent Declination
Unknown
Sunlit
N/A
Visualization observer readout
Local Sidereal Time
22:01:05
Azimuth
Unknown
Elevation
Unknown
Doppler factor
Unknown
Orbital elements
Apogee altitude
473.145 km
Perigee altitude
468.93 km
Semi-major axis
6,849.174 km
Eccentricity
0.00031
Inclination
97.5578°
RAAN
350.3311°
Arg. of periapsis
289.475°
True anomaly
70.64907°
Mean anomaly
70.6158°
Eccentric anomaly
70.63243°
Mean motion
3.829 °/min
Orbital period
94.02 mins
BSTAR
0.00031765
Loading maneuver chart data...
Computing Atmospheric mass density...
Loading historical data...
Loading historical data...
Loading historical data...
Loading historical data...
Loading historical data...
Loading historical data...
Loading historical data...

Documentation

Showing up to 5 results
|